| time (UTC) | temp F | wind direction | speed MPH | gust MPH | rain 1hr in | rain 24hr in | rain mn in | humidity % | barometer mb |
| 20260509004517 | 82 | 178 | 17.0 | 23.0 | 0.00 | 0.00 | 0.00 | 28 | 998.4 |
| 20260509003012 | 84 | 165 | 11.0 | 17.0 | 0.00 | 0.00 | 0.00 | 18 | 998.3 |
| 20260509001512 | 84 | 147 | 11.0 | 18.0 | 0.00 | 0.00 | 0.00 | 17 | 998.3 |
| 20260509000109 | 84 | 153 | 11.0 | 15.0 | 0.00 | 0.00 | 0.00 | 18 | 998.3 |
| 20260508234516 | 84 | 146 | 11.0 | 15.0 | 0.00 | 0.00 | 0.00 | 19 | 998.4 |
| 20260508233016 | 84 | 196 | 4.0 | 9.0 | 0.00 | 0.00 | 0.00 | 18 | 998.4 |
| 20260508231514 | 84 | 115 | 4.0 | 11.0 | 0.00 | 0.00 | 0.00 | 18 | 998.4 |
| 20260508230114 | 84 | 178 | 2.0 | 16.0 | 0.00 | 0.00 | 0.00 | 18 | 998.3 |
| 20260508224642 | 84 | 98 | 11.0 | 17.0 | 0.00 | 0.00 | 0.00 | 18 | 998.3 |
| 20260508223059 | 84 | 124 | 5.0 | 10.0 | 0.00 | 0.00 | 0.00 | 17 | 998.3 |
| 20260508221557 | 84 | 339 | 9.0 | 14.0 | 0.00 | 0.00 | 0.00 | 17 | 998.3 |
| 20260508220057 | 84 | 15 | 9.0 | 16.0 | 0.00 | 0.00 | 0.00 | 17 | 998.6 |
| 20260508214510 | 84 | 330 | 4.0 | 10.0 | 0.00 | 0.00 | 0.00 | 18 | 998.7 |
| 20260508213018 | 83 | 44 | 3.0 | 10.0 | 0.00 | 0.00 | 0.00 | 21 | 998.8 |
| 20260508211503 | 82 | 123 | 11.0 | 15.0 | 0.00 | 0.00 | 0.00 | 22 | 998.8 |
| 20260508204553 | 81 | 28 | 9.0 | 17.0 | 0.00 | 0.00 | 0.00 | 29 | 999.0 |
| 20260508203100 | 80 | 51 | 11.0 | 16.0 | 0.00 | 0.00 | 0.00 | 33 | 999.3 |
| 20260508201552 | 79 | 17 | 10.0 | 15.0 | 0.00 | 0.00 | 0.00 | 38 | 999.6 |
| 20260508200044 | 78 | 90 | 11.0 | 18.0 | 0.00 | 0.00 | 0.00 | 39 | 999.8 |
| 20260508194600 | 77 | 40 | 8.0 | 16.0 | 0.00 | 0.00 | 0.00 | 47 | 1000.0 |
| 20260508193103 | 76 | 25 | 5.0 | 15.0 | 0.00 | 0.00 | 0.00 | 49 | 1000.3 |
| 20260508191553 | 75 | 15 | 7.0 | 12.0 | 0.00 | 0.00 | 0.00 | 51 | 1000.4 |
| 20260508190050 | 74 | 43 | 6.0 | 13.0 | 0.00 | 0.00 | 0.00 | 55 | 1000.8 |
| 20260508184546 | 73 | 51 | 5.0 | 11.0 | 0.00 | 0.00 | 0.00 | 57 | 1001.1 |
| 20260508183044 | 72 | 102 | 8.0 | 11.0 | 0.00 | 0.00 | 0.00 | 61 | 1001.3 |
| 20260508181536 | 71 | 128 | 1.0 | 11.0 | 0.00 | 0.00 | 0.00 | 64 | 1001.4 |
| 20260508180037 | 69 | 9 | 5.0 | 13.0 | 0.00 | 0.00 | 0.00 | 67 | 1001.8 |
| 20260508174533 | 68 | 115 | 5.0 | 11.0 | 0.00 | 0.00 | 0.00 | 69 | 1001.9 |
| 20260508173027 | 67 | 119 | 6.0 | 10.0 | 0.00 | 0.00 | 0.00 | 71 | 1002.1 |
| 20260508171529 | 66 | 96 | 3.0 | 12.0 | 0.00 | 0.00 | 0.00 | 73 | 1002.3 |
| 20260508170025 | 65 | 178 | 3.0 | 11.0 | 0.00 | 0.00 | 0.00 | 73 | 1002.6 |
| 20260508164527 | 65 | 104 | 2.0 | 13.0 | 0.00 | 0.00 | 0.00 | 74 | 1002.5 |
| 20260508163031 | 65 | 119 | 3.0 | 12.0 | 0.00 | 0.00 | 0.00 | 75 | 1002.7 |
| 20260508161522 | 63 | 51 | 3.0 | 6.0 | 0.00 | 0.00 | 0.00 | 78 | 1002.9 |
| 20260508160023 | 62 | 80 | 3.0 | 10.0 | 0.00 | 0.00 | 0.00 | 81 | 1003.2 |
| 20260508154508 | 61 | 49 | 5.0 | 9.0 | 0.00 | 0.00 | 0.00 | 82 | 1003.3 |
| 20260508153005 | 60 | 36 | 3.0 | 7.0 | 0.00 | 0.00 | 0.00 | 84 | 1003.3 |
| 20260508151504 | 59 | 51 | 2.0 | 5.0 | 0.00 | 0.00 | 0.00 | 85 | 1003.4 |
| 20260508150010 | 59 | 49 | 3.0 | 12.0 | 0.00 | 0.00 | 0.00 | 85 | 1003.5 |
| 20260508144508 | 58 | 16 | 1.0 | 8.0 | 0.00 | 0.00 | 0.00 | 86 | 1003.5 |
| 20260508143010 | 58 | 28 | 2.0 | 6.0 | 0.00 | 0.00 | 0.00 | 86 | 1003.5 |
| 20260508141508 | 58 | 55 | 4.0 | 10.0 | 0.00 | 0.00 | 0.00 | 86 | 1003.5 |
| 20260508140009 | 58 | 64 | 6.0 | 9.0 | 0.00 | 0.00 | 0.00 | 85 | 1003.5 |
| 20260508134559 | 58 | 59 | 3.0 | 6.0 | 0.00 | 0.00 | 0.00 | 85 | 1003.5 |
| 20260508133108 | 57 | 178 | 0.0 | 2.0 | 0.00 | 0.00 | 0.00 | 85 | 1003.5 |
| 20260508133003 | 57 | 119 | 0.0 | 2.0 | 0.00 | 0.00 | 0.00 | 85 | 1003.5 |
| 20260508131602 | 57 | 41 | 4.0 | 7.0 | 0.00 | 0.00 | 0.00 | 84 | 1003.4 |
| 20260508130100 | 58 | 93 | 6.0 | 10.0 | 0.00 | 0.00 | 0.00 | 83 | 1003.2 |
| 20260508124525 | 57 | 117 | 3.0 | 7.0 | 0.00 | 0.00 | 0.00 | 83 | 1002.9 |
| 20260508123025 | 57 | 88 | 2.0 | 6.0 | 0.00 | 0.00 | 0.00 | 82 | 1002.7 |
| 20260508121525 | 57 | 84 | 5.0 | 7.0 | 0.00 | 0.00 | 0.00 | 81 | 1002.5 |
| 20260508114510 | 57 | 137 | 3.0 | 6.0 | 0.00 | 0.00 | 0.00 | 80 | 1002.5 |
| 20260508113009 | 58 | 137 | 3.0 | 7.0 | 0.00 | 0.00 | 0.00 | 79 | 1002.6 |
| 20260508111507 | 58 | 121 | 3.0 | 9.0 | 0.00 | 0.00 | 0.00 | 80 | 1002.3 |
| 20260508110006 | 58 | 139 | 6.0 | 13.0 | 0.00 | 0.00 | 0.00 | 81 | 1002.3 |
| 20260508104555 | 59 | 150 | 9.0 | 12.0 | 0.00 | 0.00 | 0.00 | 80 | 1002.3 |
| 20260508103153 | 58 | 138 | 11.0 | 15.0 | 0.00 | 0.00 | 0.00 | 80 | 1002.4 |
| 20260508101553 | 59 | 163 | 11.0 | 14.0 | 0.00 | 0.00 | 0.00 | 79 | 1002.8 |
| 20260508100049 | 58 | 156 | 7.0 | 11.0 | 0.00 | 0.00 | 0.00 | 77 | 1002.9 |
| 20260508094557 | 58 | 150 | 5.0 | 8.0 | 0.00 | 0.00 | 0.00 | 76 | 1003.2 |
| 20260508093054 | 58 | 142 | 11.0 | 14.0 | 0.00 | 0.00 | 0.00 | 75 | 1002.8 |
| 20260508091607 | 58 | 137 | 10.0 | 13.0 | 0.00 | 0.00 | 0.00 | 74 | 1002.5 |
| 20260508090055 | 59 | 131 | 8.0 | 10.0 | 0.00 | 0.00 | 0.00 | 71 | 1002.7 |
| 20260508084522 | 59 | 121 | 8.0 | 11.0 | 0.00 | 0.00 | 0.00 | 70 | 1003.0 |
| 20260508083020 | 59 | 128 | 4.0 | 11.0 | 0.00 | 0.00 | 0.00 | 69 | 1003.2 |
| 20260508081525 | 60 | 65 | 7.0 | 10.0 | 0.00 | 0.00 | 0.00 | 69 | 1002.9 |
| 20260508080029 | 60 | 171 | 5.0 | 7.0 | 0.00 | 0.00 | 0.00 | 68 | 1003.7 |
| 20260508074536 | 60 | 150 | 4.0 | 8.0 | 0.00 | 0.00 | 0.00 | 68 | 1003.9 |
| 20260508073033 | 60 | 132 | 6.0 | 10.0 | 0.00 | 0.00 | 0.00 | 69 | 1004.0 |
| 20260508071532 | 60 | 123 | 8.0 | 10.0 | 0.00 | 0.00 | 0.00 | 67 | 1004.0 |
| 20260508070031 | 61 | 110 | 4.0 | 9.0 | 0.00 | 0.00 | 0.00 | 67 | 1004.1 |
| 20260508064543 | 61 | 119 | 4.0 | 9.0 | 0.00 | 0.00 | 0.00 | 67 | 1003.8 |
| 20260508063032 | 61 | 124 | 5.0 | 9.0 | 0.00 | 0.00 | 0.00 | 67 | 1003.9 |
| 20260508061536 | 61 | 123 | 2.0 | 3.0 | 0.00 | 0.00 | 0.00 | 66 | 1003.9 |
| 20260508060032 | 61 | 148 | 5.0 | 9.0 | 0.00 | 0.00 | 0.00 | 66 | 1004.1 |
| 20260508054538 | 62 | 160 | 9.0 | 13.0 | 0.00 | 0.00 | 0.00 | 65 | 1004.0 |
| 20260508053025 | 62 | 163 | 12.0 | 15.0 | 0.00 | 0.00 | 0.00 | 65 | 1004.1 |
| 20260508051530 | 62 | 168 | 15.0 | 19.0 | 0.00 | 0.00 | 0.00 | 64 | 1004.1 |
| 20260508050023 | 63 | 173 | 16.0 | 21.0 | 0.00 | 0.00 | 0.00 | 64 | 1003.8 |
| 20260508044526 | 63 | 157 | 17.0 | 21.0 | 0.00 | 0.00 | 0.00 | 63 | 1003.8 |
| 20260508043025 | 63 | 144 | 17.0 | 22.0 | 0.00 | 0.00 | 0.00 | 62 | 1004.1 |
| 20260508041524 | 64 | 147 | 15.0 | 20.0 | 0.00 | 0.00 | 0.00 | 61 | 1004.2 |
| 20260508040039 | 64 | 153 | 19.0 | 25.0 | 0.00 | 0.00 | 0.00 | 59 | 1004.2 |
| 20260508034511 | 65 | 150 | 18.0 | 26.0 | 0.00 | 0.00 | 0.00 | 58 | 1003.8 |
| 20260508033009 | 66 | 142 | 18.0 | 23.0 | 0.00 | 0.00 | 0.00 | 58 | 1003.6 |
| 20260508031514 | 67 | 142 | 17.0 | 21.0 | 0.00 | 0.00 | 0.00 | 56 | 1003.6 |
| 20260508030008 | 68 | 148 | 18.0 | 25.0 | 0.00 | 0.00 | 0.00 | 54 | 1003.5 |
| 20260508024521 | 68 | 149 | 17.0 | 22.0 | 0.00 | 0.00 | 0.00 | 53 | 1003.4 |
| 20260508023013 | 69 | 153 | 16.0 | 21.0 | 0.00 | 0.00 | 0.00 | 52 | 1003.3 |
| 20260508021512 | 69 | 140 | 15.0 | 19.0 | 0.00 | 0.00 | 0.00 | 51 | 1003.0 |
| 20260508020011 | 70 | 139 | 16.0 | 22.0 | 0.00 | 0.00 | 0.00 | 50 | 1002.8 |
| 20260508014603 | 70 | 142 | 14.0 | 22.0 | 0.00 | 0.00 | 0.00 | 49 | 1002.7 |
| 20260508013001 | 71 | 135 | 17.0 | 21.0 | 0.00 | 0.00 | 0.00 | 47 | 1002.6 |
| 20260508011600 | 71 | 131 | 15.0 | 20.0 | 0.00 | 0.00 | 0.00 | 46 | 1002.5 |
| 20260508011502 | 71 | 137 | 14.0 | 20.0 | 0.00 | 0.00 | 0.00 | 45 | 1002.5 |
| 20260508010059 | 72 | 139 | 17.0 | 22.0 | 0.00 | 0.00 | 0.00 | 45 | 1002.5 |